FW6610 Weather Reports


Display with metric or nautical units.
time (UTC)temp
F
wind
direction
speed
MPH
gust
MPH
rain 1hr
in
rain 24hr
in
rain mn
in
humidity
%
barometer
mb
20260905081551 58 0 0.0 0.0 0.00 0.00 0.00 98 1009.8
20260905081026 58 0 0.0 0.0 0.00 0.00 0.00 98 1009.9
20260905080525 58 0 0.0 0.0 0.00 0.00 0.00 98 1010.0
20260905080050 58 0 0.0 0.0 0.00 0.00 0.00 98 1010.1
20260905075525 58 0 0.0 0.0 0.00 0.00 0.00 98 1010.1
20260905075028 58 0 0.0 0.0 0.00 0.00 0.00 98 1010.0
20260905074545 57 0 0.0 0.0 0.00 0.00 0.00 97 1010.1
20260905074033 57 0 0.0 0.0 0.00 0.00 0.00 97 1010.2
20260905073528 58 0 0.0 0.0 0.00 0.00 0.00 97 1010.0
20260905073052 58 0 0.0 0.0 0.00 0.00 0.00 98 1010.2
20260905072527 58 0 0.0 0.0 0.00 0.00 0.00 97 1010.1
20260905072027 58 0 0.0 0.0 0.00 0.00 0.00 97 1010.3
20260905071551 58 0 0.0 0.0 0.00 0.00 0.00 97 1010.1
20260905071029 58 0 0.0 0.0 0.00 0.00 0.00 97 1010.1
20260905070529 58 0 0.0 0.0 0.00 0.00 0.00 96 1010.1
20260905070136 58 0 0.0 0.0 0.00 0.00 0.00 97 1010.2
20260905065531 58 0 0.0 0.0 0.00 0.00 0.00 97 1010.2
20260905065028 58 0 0.0 0.0 0.00 0.00 0.00 96 1010.0
20260905064554 58 0 0.0 0.0 0.00 0.00 0.00 96 1010.3
20260905064028 58 0 0.0 0.0 0.00 0.00 0.00 96 1010.3
20260905063525 59 0 0.0 0.0 0.00 0.00 0.00 96 1010.2
20260905063053 59 0 0.0 0.0 0.00 0.00 0.00 96 1010.3
20260905062528 59 0 0.0 0.0 0.00 0.00 0.00 96 1010.2
20260905062028 59 0 0.0 0.0 0.00 0.00 0.00 96 1010.4
20260905061613 59 0 0.0 0.0 0.00 0.00 0.00 96 1010.1
20260905061026 59 0 0.0 0.0 0.00 0.00 0.00 96 1010.3
20260905060528 59 0 0.0 0.0 0.00 0.00 0.00 95 1010.4
20260905060046 59 0 0.0 0.0 0.00 0.00 0.00 95 1010.4
20260905055529 59 0 0.0 0.0 0.00 0.00 0.00 94 1010.6
20260905055032 60 0 0.0 0.0 0.00 0.00 0.00 94 1010.6
20260905054546 60 0 0.0 0.0 0.00 0.00 0.00 94 1010.5
20260905054028 60 0 0.0 0.0 0.00 0.00 0.00 94 1010.8
20260905053530 61 0 0.0 0.0 0.00 0.00 0.00 94 1010.8
20260905053054 61 0 0.0 0.0 0.00 0.00 0.00 93 1010.7
20260905052527 61 0 0.0 0.0 0.00 0.00 0.00 93 1010.7
20260905052027 62 0 0.0 0.0 0.00 0.00 0.00 92 1010.8
20260905051551 62 0 0.0 0.0 0.00 0.00 0.00 91 1010.9
20260905051026 62 0 0.0 0.0 0.00 0.00 0.00 91 1010.9
20260905050527 63 0 0.0 0.0 0.00 0.00 0.00 90 1010.8
20260905050048 63 0 0.0 0.0 0.00 0.00 0.00 90 1010.9
20260905045530 64 0 0.0 3.0 0.00 0.00 0.00 87 1010.9
20260905045029 64 0 0.0 3.0 0.00 0.00 0.00 88 1010.8
20260905044546 63 315 1.0 3.0 0.00 0.00 0.00 89 1010.8
20260905044028 63 16 0.0 4.0 0.00 0.00 0.00 90 1011.0
20260905043525 62 15 1.0 4.0 0.00 0.00 0.00 93 1010.9
20260905043051 61 348 0.0 1.0 0.00 0.00 0.00 95 1010.9
20260905042525 61 0 0.0 0.0 0.00 0.00 0.00 96 1010.8
20260905042027 61 0 0.0 0.0 0.00 0.00 0.00 96 1010.7
20260905041600 61 0 0.0 0.0 0.00 0.00 0.00 96 1010.8
20260905041029 61 0 0.0 0.0 0.00 0.00 0.00 96 1010.7
20260905040526 61 0 0.0 0.0 0.00 0.00 0.00 96 1010.5
20260905040048 61 0 0.0 0.0 0.00 0.00 0.00 96 1010.5
20260905035527 61 309 0.0 0.0 0.00 0.00 0.00 96 1010.4
20260905035029 61 0 0.0 0.0 0.00 0.00 0.00 95 1010.4
20260905034554 61 0 0.0 0.0 0.00 0.00 0.00 95 1010.6
20260905034024 61 0 0.0 0.0 0.00 0.00 0.00 95 1010.7
20260905033528 62 0 0.0 0.0 0.00 0.00 0.00 95 1010.8
20260905033044 62 0 0.0 0.0 0.00 0.00 0.00 95 1010.8
20260905032529 62 0 0.0 0.0 0.00 0.00 0.00 95 1010.8
20260905032027 62 0 0.0 0.0 0.00 0.00 0.00 95 1010.8
20260905031552 62 0 0.0 0.0 0.00 0.00 0.00 95 1010.8
20260905031028 62 0 0.0 0.0 0.00 0.00 0.00 95 1011.0
20260905030526 62 0 0.0 0.0 0.00 0.00 0.00 95 1010.9
20260905030046 62 0 0.0 0.0 0.00 0.00 0.00 95 1010.9
20260905025528 62 0 0.0 0.0 0.00 0.00 0.00 95 1011.0
20260905025026 62 0 0.0 0.0 0.00 0.00 0.00 95 1010.9
20260905024553 62 309 0.0 0.0 0.00 0.00 0.00 95 1010.8
20260905024028 62 0 0.0 0.0 0.00 0.00 0.00 95 1010.7
20260905023528 62 0 0.0 0.0 0.00 0.00 0.00 95 1010.7
20260905023051 62 0 0.0 0.0 0.00 0.00 0.00 95 1010.6
20260905022527 62 0 0.0 0.0 0.00 0.00 0.00 94 1010.6
20260905022030 62 0 0.0 0.0 0.00 0.00 0.00 94 1010.5
20260905021557 63 0 0.0 0.0 0.00 0.00 0.00 94 1010.6
20260905021028 63 0 0.0 0.0 0.00 0.00 0.00 94 1010.8
20260905020528 63 0 0.0 0.0 0.00 0.00 0.00 93 1010.7
20260905020052 63 0 0.0 0.0 0.00 0.00 0.00 93 1010.8
20260905015529 63 0 0.0 0.0 0.00 0.00 0.00 93 1011.0
20260905015030 64 0 0.0 0.0 0.00 0.00 0.00 92 1010.9
20260905014545 64 0 0.0 0.0 0.00 0.00 0.00 92 1010.9
20260905014030 64 0 0.0 0.0 0.00 0.00 0.00 92 1010.9
20260905013529 64 0 0.0 0.0 0.00 0.00 0.00 92 1010.9
20260905013044 64 0 0.0 0.0 0.00 0.00 0.00 91 1011.1
20260905012527 65 0 0.0 0.0 0.00 0.00 0.00 91 1010.9
20260905012031 65 0 0.0 0.0 0.00 0.00 0.00 91 1011.0
20260905011556 65 0 0.0 0.0 0.00 0.00 0.00 91 1011.0
20260905011030 65 0 0.0 0.0 0.00 0.00 0.00 90 1010.9
20260905010531 66 0 0.0 0.0 0.00 0.00 0.00 90 1011.0
20260905010051 66 0 0.0 0.0 0.00 0.00 0.00 90 1011.0
20260905005530 66 0 0.0 0.0 0.00 0.00 0.00 89 1010.9
20260905005030 66 0 0.0 0.0 0.00 0.00 0.00 89 1011.0
20260905004550 67 0 0.0 0.0 0.00 0.00 0.00 89 1010.9
20260905004030 67 0 0.0 0.0 0.00 0.00 0.00 89 1011.1
20260905003531 67 0 0.0 0.0 0.00 0.00 0.00 88 1011.0
20260905003046 67 0 0.0 0.0 0.00 0.00 0.00 88 1010.8
20260905002529 68 0 0.0 0.0 0.00 0.00 0.00 87 1010.7
20260905002032 68 0 0.0 0.0 0.00 0.00 0.00 87 1010.7
20260905001601 68 0 0.0 0.0 0.00 0.00 0.00 86 1010.6
20260905001033 69 0 0.0 0.0 0.00 0.00 0.00 85 1010.6
20260905000531 69 0 0.0 0.0 0.00 0.00 0.00 85 1010.4
20260904235529 70 0 0.0 1.0 0.00 0.00 0.00 81 1010.3
20260904235032 70 0 0.0 3.0 0.00 0.00 0.00 80 1010.2
20260904234546 70 0 0.0 3.0 0.00 0.00 0.00 81 1010.3
20260904234029 70 0 0.0 1.0 0.00 0.00 0.00 82 1010.4
20260904233530 69 0 0.0 1.0 0.00 0.00 0.00 82 1010.3
20260904233114 69 0 0.0 0.0 0.00 0.00 0.00 84 1010.3
20260904232531 70 0 0.0 0.0 0.00 0.00 0.00 84 1010.3
20260904232031 70 0 0.0 0.0 0.00 0.00 0.00 84 1010.4
20260904231602 70 0 0.0 0.0 0.00 0.00 0.00 82 1010.2
20260904231031 71 0 0.0 0.0 0.00 0.00 0.00 82 1010.3
20260904230531 71 0 0.0 0.0 0.00 0.00 0.00 83 1010.2
20260904230051 72 0 0.0 0.0 0.00 0.00 0.00 82 1010.1
20260904225529 72 0 0.0 0.0 0.00 0.00 0.00 81 1010.1
20260904225032 73 0 0.0 1.0 0.00 0.00 0.00 81 1010.2
20260904224608 74 0 0.0 1.0 0.00 0.00 0.00 79 1010.2
20260904224030 74 0 0.0 1.0 0.00 0.00 0.00 78 1010.3
20260904223529 75 0 0.0 1.0 0.00 0.00 0.00 77 1010.1
20260904223056 75 0 0.0 1.0 0.00 0.00 0.00 75 1009.9
20260904222531 76 0 0.0 1.0 0.00 0.00 0.00 72 1010.0
20260904222029 77 0 0.0 1.0 0.00 0.00 0.00 69 1010.0
20260904221555 78 309 0.0 1.0 0.00 0.00 0.00 66 1009.9
20260904221029 78 269 0.0 4.0 0.00 0.00 0.00 64 1009.9
20260904220530 79 0 0.0 4.0 0.00 0.00 0.00 64 1010.0
20260904220053 79 26 1.0 4.0 0.00 0.00 0.00 62 1009.9
20260904215528 79 290 1.0 5.0 0.00 0.00 0.00 61 1009.8
20260904215032 79 281 2.0 5.0 0.00 0.00 0.00 60 1009.9
20260904214602 79 303 2.0 5.0 0.00 0.00 0.00 61 1010.0
20260904214027 80 310 0.0 3.0 0.00 0.00 0.00 62 1010.1
20260904213533 79 19 1.0 4.0 0.00 0.00 0.00 60 1010.1
20260904213056 78 306 1.0 4.0 0.00 0.00 0.00 59 1010.1
20260904212532 78 320 2.0 4.0 0.00 0.00 0.00 58 1010.1
20260904212028 78 326 1.0 5.0 0.00 0.00 0.00 58 1010.1
20260904211552 79 37 1.0 6.0 0.00 0.00 0.00 60 1010.1
20260904211031 79 284 2.0 6.0 0.00 0.00 0.00 57 1010.2
20260904210530 80 287 2.0 6.0 0.00 0.00 0.00 56 1010.1
20260904205531 80 333 3.0 12.0 0.00 0.00 0.00 55 1010.1
20260904205029 80 333 5.0 12.0 0.00 0.00 0.00 54 1010.1
20260904204557 80 298 3.0 11.0 0.00 0.00 0.00 56 1010.1
20260904204034 80 326 2.0 7.0 0.00 0.00 0.00 57 1010.1
20260904203530 80 6 2.0 5.0 0.00 0.00 0.00 57 1010.1
20260904203052 80 312 2.0 7.0 0.00 0.00 0.00 56 1010.0
20260904202530 81 342 2.0 7.0 0.00 0.00 0.00 55 1010.0
20260904202029 82 230 2.0 7.0 0.00 0.00 0.00 56 1009.9
20260904201546 81 310 2.0 9.0 0.00 0.00 0.00 57 1010.1
20260904201029 81 53 2.0 9.0 0.00 0.00 0.00 56 1010.1
20260904200529 82 340 3.0 9.0 0.00 0.00 0.00 56 1010.1
20260904200054 82 338 3.0 8.0 0.00 0.00 0.00 56 1010.1
20260904195531 81 20 3.0 10.0 0.00 0.00 0.00 58 1010.1
20260904195030 81 281 5.0 10.0 0.00 0.00 0.00 55 1010.2
20260904194551 81 25 4.0 8.0 0.00 0.00 0.00 57 1010.1
20260904194030 81 338 3.0 8.0 0.00 0.00 0.00 57 1010.2
20260904193530 80 304 3.0 8.0 0.00 0.00 0.00 59 1010.2
20260904193100 80 328 3.0 10.0 0.00 0.00 0.00 57 1010.2
20260904192530 80 314 3.0 10.0 0.00 0.00 0.00 57 1010.1
20260904192031 81 173 4.0 7.0 0.00 0.00 0.00 55 1010.3
20260904191555 81 308 2.0 7.0 0.00 0.00 0.00 55 1010.3
20260904191031 81 8 4.0 7.0 0.00 0.00 0.00 53 1010.3
20260904190533 81 319 3.0 8.0 0.00 0.00 0.00 54 1010.2
20260904190052 81 14 2.0 8.0 0.00 0.00 0.00 57 1010.1
20260904185530 80 355 3.0 8.0 0.00 0.00 0.00 57 1010.1
20260904185031 80 278 3.0 8.0 0.00 0.00 0.00 54 1010.1
20260904184553 81 299 2.0 10.0 0.00 0.00 0.00 53 1010.4
20260904184031 81 246 3.0 10.0 0.00 0.00 0.00 53 1010.4
20260904183532 81 300 4.0 10.0 0.00 0.00 0.00 54 1010.3
20260904183054 81 316 3.0 12.0 0.00 0.00 0.00 54 1010.5
20260904182531 81 290 5.0 12.0 0.00 0.00 0.00 53 1010.4
20260904182033 81 322 4.0 13.0 0.00 0.00 0.00 52 1010.7
20260904181552 81 277 5.0 13.0 0.00 0.00 0.00 55 1010.7
20260904181030 82 311 4.0 9.0 0.00 0.00 0.00 55 1010.6
20260904180534 82 320 2.0 11.0 0.00 0.00 0.00 53 1010.6
20260904180103 81 345 2.0 11.0 0.00 0.00 0.00 54 1010.5
20260904175534 81 298 4.0 11.0 0.00 0.00 0.00 55 1010.5
20260904175030 81 352 3.0 11.0 0.00 0.00 0.00 56 1010.5
20260904174556 81 278 4.0 11.0 0.00 0.00 0.00 54 1010.4
20260904174028 81 287 3.0 7.0 0.00 0.00 0.00 57 1010.4
20260904173531 81 335 3.0 8.0 0.00 0.00 0.00 54 1010.5
20260904173056 81 288 2.0 8.0 0.00 0.00 0.00 57 1010.4
20260904172530 81 308 4.0 12.0 0.00 0.00 0.00 56 1010.4
20260904172031 81 318 5.0 12.0 0.00 0.00 0.00 55 1010.5
20260904171551 81 324 4.0 9.0 0.00 0.00 0.00 54 1010.6
20260904171030 81 345 3.0 7.0 0.00 0.00 0.00 57 1010.6
20260904170532 81 314 3.0 9.0 0.00 0.00 0.00 57 1010.7
20260904170047 81 311 3.0 11.0 0.00 0.00 0.00 57 1010.7
20260904165530 80 311 3.0 12.0 0.00 0.00 0.00 54 1010.7
20260904165030 80 274 5.0 12.0 0.00 0.00 0.00 55 1010.7
20260904164553 80 349 4.0 10.0 0.00 0.00 0.00 58 1010.9
20260904164027 80 333 4.0 8.0 0.00 0.00 0.00 58 1010.7
20260904163530 80 238 4.0 8.0 0.00 0.00 0.00 56 1010.7
20260904163052 80 310 3.0 10.0 0.00 0.00 0.00 58 1010.9
20260904162533 80 356 3.0 10.0 0.00 0.00 0.00 59 1010.8
20260904162030 80 299 3.0 8.0 0.00 0.00 0.00 60 1010.8
20260904161558 80 41 3.0 8.0 0.00 0.00 0.00 59 1010.8
20260904161033 80 248 3.0 9.0 0.00 0.00 0.00 62 1010.8
20260904160534 80 354 2.0 9.0 0.00 0.00 0.00 63 1010.9
20260904160056 80 345 3.0 11.0 0.00 0.00 0.00 61 1011.3
20260904155529 79 285 3.0 11.0 0.00 0.00 0.00 67 1011.2
20260904155029 79 53 5.0 11.0 0.00 0.00 0.00 62 1011.2
20260904154554 79 340 5.0 11.0 0.00 0.00 0.00 63 1011.0
20260904154030 79 350 4.0 10.0 0.00 0.00 0.00 63 1011.3
20260904153528 79 275 1.0 9.0 0.00 0.00 0.00 70 1011.3
20260904153053 78 306 2.0 9.0 0.00 0.00 0.00 66 1011.3
20260904152529 78 308 4.0 9.0 0.00 0.00 0.00 68 1011.4
20260904152031 77 9 4.0 8.0 0.00 0.00 0.00 69 1011.6
20260904151551 77 255 3.0 7.0 0.00 0.00 0.00 72 1011.5
20260904151030 77 286 2.0 8.0 0.00 0.00 0.00 72 1011.6
20260904150530 76 13 3.0 8.0 0.00 0.00 0.00 76 1011.5
20260904150045 76 250 0.0 3.0 0.00 0.00 0.00 81 1011.5
20260904145529 75 0 0.0 5.0 0.00 0.00 0.00 79 1011.5
20260904145029 75 0 0.0 5.0 0.00 0.00 0.00 76 1011.6
20260904144600 75 312 0.0 3.0 0.00 0.00 0.00 81 1011.6
20260904144031 75 51 0.0 3.0 0.00 0.00 0.00 81 1011.4
20260904143530 75 0 0.0 3.0 0.00 0.00 0.00 80 1011.6
20260904143059 74 314 1.0 3.0 0.00 0.00 0.00 83 1011.6
20260904142527 73 80 1.0 3.0 0.00 0.00 0.00 86 1011.7
20260904142027 72 299 0.0 3.0 0.00 0.00 0.00 88 1011.7
20260904141554 72 304 0.0 4.0 0.00 0.00 0.00 93 1011.8
20260904141030 72 0 1.0 6.0 0.00 0.00 0.00 93 1011.6
20260904140529 72 0 1.0 6.0 0.00 0.00 0.00 92 1011.6
20260904140049 72 304 1.0 7.0 0.00 0.00 0.00 91 1011.7
20260904135530 72 336 2.0 7.0 0.00 0.00 0.00 91 1011.5
20260904135029 71 338 2.0 6.0 0.00 0.00 0.00 91 1011.6
20260904134559 71 0 0.0 4.0 0.00 0.00 0.00 93 1011.6
20260904134031 71 16 1.0 5.0 0.00 0.00 0.00 94 1011.6
20260904133535 70 13 2.0 5.0 0.00 0.00 0.00 95 1011.4
20260904133056 70 120 1.0 5.0 0.00 0.00 0.00 97 1011.6
20260904132527 69 72 1.0 5.0 0.00 0.00 0.00 98 1011.7
20260904132028 69 249 0.0 4.0 0.00 0.00 0.00 100 1011.5
20260904131553 68 291 1.0 5.0 0.00 0.00 0.00 100 1011.7
20260904131030 68 310 2.0 5.0 0.00 0.00 0.00 100 1011.6
20260904130530 68 133 1.0 4.0 0.00 0.00 0.00 100 1011.5
20260904130047 67 0 1.0 4.0 0.00 0.00 0.00 100 1011.5
20260904125529 67 0 1.0 4.0 0.00 0.00 0.00 100 1011.7
20260904125029 66 354 0.0 3.0 0.00 0.00 0.00 100 1011.5
20260904124544 66 251 0.0 3.0 0.00 0.00 0.00 100 1011.7
20260904124028 66 19 0.0 2.0 0.00 0.00 0.00 100 1011.6
20260904123530 65 0 0.0 0.0 0.00 0.00 0.00 100 1011.7
20260904123053 65 0 0.0 0.0 0.00 0.00 0.00 100 1011.8
20260904122531 64 0 0.0 0.0 0.00 0.00 0.00 100 1011.8
20260904122030 64 0 0.0 0.0 0.00 0.00 0.00 100 1011.8
20260904121553 64 0 0.0 0.0 0.00 0.00 0.00 100 1011.8
20260904121030 63 0 0.0 0.0 0.00 0.00 0.00 100 1011.7
20260904120531 63 0 0.0 0.0 0.00 0.00 0.00 100 1011.8
20260904120048 63 0 0.0 0.0 0.00 0.00 0.00 100 1011.7
20260904115529 63 0 0.0 0.0 0.00 0.00 0.00 100 1011.7
20260904115032 62 0 0.0 0.0 0.00 0.00 0.00 100 1011.6
20260904114545 62 0 0.0 0.0 0.00 0.00 0.00 100 1011.6
20260904114031 62 0 0.0 0.0 0.00 0.00 0.00 100 1011.5
20260904113530 62 0 0.0 0.0 0.00 0.00 0.00 100 1011.3
20260904113045 62 0 0.0 0.0 0.00 0.00 0.00 99 1011.5
20260904112527 61 0 0.0 0.0 0.00 0.00 0.00 99 1011.3
20260904112029 61 0 0.0 0.0 0.00 0.00 0.00 99 1011.3
20260904111546 61 0 0.0 0.0 0.00 0.00 0.00 99 1011.3
20260904111027 61 0 0.0 0.0 0.00 0.00 0.00 99 1011.2
20260904110530 61 0 0.0 0.0 0.00 0.00 0.00 99 1011.1
20260904110051 61 0 0.0 0.0 0.00 0.00 0.00 99 1011.1
20260904105531 61 0 0.0 0.0 0.00 0.00 0.00 99 1011.1
20260904105029 61 0 0.0 0.0 0.00 0.00 0.00 99 1011.1
20260904104547 61 0 0.0 0.0 0.00 0.00 0.00 99 1011.0
20260904104030 61 0 0.0 0.0 0.00 0.00 0.00 99 1011.1
20260904103529 61 0 0.0 0.0 0.00 0.00 0.00 99 1011.2
20260904103044 61 0 0.0 0.0 0.00 0.00 0.00 99 1011.1
20260904102530 61 0 0.0 0.0 0.00 0.00 0.00 99 1011.2
20260904102029 61 0 0.0 0.0 0.00 0.00 0.00 99 1011.1
20260904101552 61 0 0.0 0.0 0.00 0.00 0.00 99 1011.1
20260904101031 61 0 0.0 0.0 0.00 0.00 0.00 99 1011.0
20260904100530 62 0 0.0 0.0 0.00 0.00 0.00 99 1010.9
20260904100053 62 0 0.0 0.0 0.00 0.00 0.00 99 1010.9
20260904095530 62 0 0.0 0.0 0.00 0.00 0.00 99 1010.8
20260904095030 62 0 0.0 0.0 0.00 0.00 0.00 99 1010.9
20260904094546 62 0 0.0 0.0 0.00 0.00 0.00 99 1010.7
20260904094029 63 0 0.0 0.0 0.00 0.00 0.00 99 1010.7
20260904093530 63 0 0.0 0.0 0.00 0.00 0.00 99 1010.7
20260904093052 63 0 0.0 0.0 0.00 0.00 0.00 99 1010.7
20260904092527 63 0 0.0 0.0 0.00 0.00 0.00 99 1010.7
20260904092031 63 0 0.0 0.0 0.00 0.00 0.00 99 1010.8
20260904091556 64 0 0.0 0.0 0.00 0.00 0.00 99 1010.8
20260904091031 64 0 0.0 0.0 0.00 0.00 0.00 99 1010.6
20260904090530 64 0 0.0 0.0 0.00 0.00 0.00 99 1010.5
20260904090046 64 0 0.0 0.0 0.00 0.00 0.00 99 1010.6
20260904085529 64 0 0.0 0.0 0.00 0.00 0.00 99 1010.7
20260904085031 64 0 0.0 0.0 0.00 0.00 0.00 99 1010.6
20260904084557 64 0 0.0 0.0 0.00 0.00 0.00 99 1010.7
20260904084029 64 0 0.0 0.0 0.00 0.00 0.00 99 1010.7
20260904083531 64 0 0.0 0.0 0.00 0.00 0.00 99 1010.6
20260904083052 64 0 0.0 0.0 0.00 0.00 0.00 99 1010.4
20260904082530 64 0 0.0 0.0 0.00 0.00 0.00 99 1010.5
20260904082032 64 0 0.0 0.0 0.00 0.00 0.00 99 1010.5